TimeCST,TemperatureF,Dew PointF,Humidity,Sea Level PressureIn,VisibilityMPH,Wind Direction,Wind SpeedMPH,Gust SpeedMPH,PrecipitationIn,Events,Conditions,WindDirDegrees,DateUTC
12:15 AM,51.8,48.2,88,30.15,10.0,West,8.1,-,N/A,,Overcast,270,2012-11-12 06:15:00
12:55 AM,51.8,48.2,88,30.15,10.0,West,5.8,-,N/A,,Overcast,260,2012-11-12 06:55:00
1:15 AM,51.8,48.2,88,30.14,10.0,NW,9.2,-,N/A,,Overcast,310,2012-11-12 07:15:00
1:35 AM,51.8,46.4,82,30.15,10.0,NW,6.9,-,N/A,,Mostly Cloudy,310,2012-11-12 07:35:00
1:56 AM,51.8,48.2,88,30.16,10.0,West,5.8,-,N/A,,Mostly Cloudy,280,2012-11-12 07:56:00
2:15 AM,51.8,48.2,88,30.14,10.0,WNW,11.5,-,N/A,,Overcast,300,2012-11-12 08:15:00
2:35 AM,51.8,46.4,82,30.16,10.0,WNW,18.4,26.5,N/A,,Overcast,300,2012-11-12 08:35:00
3:15 AM,48.2,44.6,87,30.19,10.0,WNW,18.4,-,N/A,,Overcast,300,2012-11-12 09:15:00
3:35 AM,48.2,44.6,87,30.21,10.0,NW,18.4,21.9,N/A,,Overcast,320,2012-11-12 09:35:00
4:15 AM,46.4,39.2,76,30.24,10.0,NW,18.4,-,N/A,,Overcast,310,2012-11-12 10:15:00
4:35 AM,44.6,39.2,81,30.25,10.0,NW,18.4,-,N/A,,Overcast,320,2012-11-12 10:35:00
4:55 AM,44.6,39.2,81,30.27,10.0,North,-9999.0,-,N/A,,Overcast,0,2012-11-12 10:55:00
5:15 AM,42.8,37.4,81,30.26,10.0,NW,20.7,25.3,N/A,,Overcast,320,2012-11-12 11:15:00
5:35 AM,42.8,35.6,76,30.29,10.0,NNW,19.6,24.2,N/A,,Overcast,330,2012-11-12 11:35:00
5:55 AM,42.8,35.6,76,30.31,10.0,NW,18.4,23.0,N/A,,Overcast,320,2012-11-12 11:55:00
6:16 AM,42.8,35.6,76,30.32,10.0,NNW,18.4,-,N/A,,Overcast,330,2012-11-12 12:16:00
6:55 AM,39.2,33.8,81,30.36,10.0,NNW,13.8,20.7,N/A,,Clear,330,2012-11-12 12:55:00
7:35 AM,39.2,30.2,70,30.39,10.0,North,18.4,21.9,N/A,,Clear,350,2012-11-12 13:35:00
7:55 AM,39.2,30.2,70,30.41,10.0,North,18.4,-,N/A,,Clear,350,2012-11-12 13:55:00
8:16 AM,39.2,28.4,65,30.42,10.0,NNW,19.6,26.5,N/A,,Clear,340,2012-11-12 14:16:00
8:35 AM,39.2,28.4,65,30.44,10.0,North,20.7,24.2,N/A,,Clear,350,2012-11-12 14:35:00
8:55 AM,39.2,26.6,61,30.46,10.0,North,19.6,-,N/A,,Clear,350,2012-11-12 14:55:00
9:55 AM,42.8,26.6,53,30.48,10.0,North,13.8,-,N/A,,Clear,350,2012-11-12 15:55:00
10:15 AM,42.8,28.4,57,30.49,10.0,North,15.0,-,N/A,,Clear,350,2012-11-12 16:15:00
10:36 AM,44.6,26.6,49,30.48,10.0,North,16.1,21.9,N/A,,Clear,350,2012-11-12 16:36:00
10:55 AM,44.6,26.6,49,30.48,10.0,North,15.0,-,N/A,,Clear,350,2012-11-12 16:55:00
11:15 AM,46.4,26.6,46,30.47,10.0,North,15.0,19.6,N/A,,Clear,360,2012-11-12 17:15:00
11:36 AM,46.4,24.8,43,30.46,10.0,North,16.1,20.7,N/A,,Clear,350,2012-11-12 17:36:00
11:55 AM,46.4,24.8,43,30.45,10.0,North,11.5,-,N/A,,Clear,360,2012-11-12 17:55:00
12:35 PM,48.2,26.6,43,30.43,10.0,NNE,9.2,-,N/A,,Clear,20,2012-11-12 18:35:00
12:55 PM,48.2,26.6,43,30.44,10.0,NNW,8.1,-,N/A,,Clear,340,2012-11-12 18:55:00
1:15 PM,48.2,26.6,43,30.43,10.0,NNW,11.5,-,N/A,,Clear,330,2012-11-12 19:15:00
1:55 PM,50.0,24.8,37,30.43,10.0,North,8.1,-,N/A,,Clear,350,2012-11-12 19:55:00
2:15 PM,51.8,24.8,35,30.44,10.0,NNW,9.2,-,N/A,,Clear,340,2012-11-12 20:15:00
2:55 PM,51.8,24.8,35,30.44,10.0,North,10.4,-,N/A,,Clear,350,2012-11-12 20:55:00
3:15 PM,50.0,24.8,37,30.45,10.0,North,8.1,-,N/A,,Clear,360,2012-11-12 21:15:00
3:35 PM,50.0,24.8,37,30.45,10.0,North,3.5,-,N/A,,Clear,350,2012-11-12 21:35:00
3:56 PM,50.0,24.8,37,30.45,10.0,North,3.5,-,N/A,,Clear,10,2012-11-12 21:56:00
4:35 PM,50.0,24.8,37,30.46,10.0,Calm,Calm,-,N/A,,Clear,0,2012-11-12 22:35:00
5:15 PM,48.2,26.6,43,30.46,10.0,Calm,Calm,-,N/A,,Clear,0,2012-11-12 23:15:00
5:55 PM,48.2,26.6,43,30.46,10.0,South,3.5,-,N/A,,Clear,180,2012-11-12 23:55:00
6:15 PM,44.6,32.0,61,30.47,10.0,SSW,5.8,-,N/A,,Clear,200,2012-11-13 00:15:00
6:35 PM,44.6,35.6,71,30.47,10.0,SSW,5.8,-,N/A,,Clear,200,2012-11-13 00:35:00
6:55 PM,44.6,33.8,66,30.47,10.0,SSW,4.6,-,N/A,,Clear,200,2012-11-13 00:55:00
7:15 PM,44.6,33.8,66,30.47,10.0,SSW,4.6,-,N/A,,Clear,210,2012-11-13 01:15:00
7:36 PM,42.8,33.8,70,30.47,10.0,SSW,4.6,-,N/A,,Clear,210,2012-11-13 01:36:00
7:55 PM,42.8,35.6,76,30.48,10.0,SSW,4.6,-,N/A,,Clear,200,2012-11-13 01:55:00
8:15 PM,42.8,35.6,76,30.48,10.0,SSW,4.6,-,N/A,,Clear,210,2012-11-13 02:15:00
8:36 PM,41.0,35.6,81,30.48,10.0,SSW,4.6,-,N/A,,Clear,210,2012-11-13 02:36:00
8:55 PM,42.8,33.8,70,30.49,10.0,Calm,Calm,-,N/A,,Clear,0,2012-11-13 02:55:00
9:15 PM,41.0,33.8,76,30.49,10.0,Calm,Calm,-,N/A,,Clear,0,2012-11-13 03:15:00
9:55 PM,42.8,33.8,70,30.49,10.0,Calm,Calm,-,N/A,,Clear,0,2012-11-13 03:55:00
10:15 PM,41.0,32.0,70,30.49,10.0,ESE,3.5,-,N/A,,Clear,120,2012-11-13 04:15:00
10:55 PM,39.2,30.2,70,30.50,10.0,Calm,Calm,-,N/A,,Clear,0,2012-11-13 04:55:00
11:15 PM,37.4,32.0,81,30.50,10.0,Calm,Calm,-,N/A,,Clear,0,2012-11-13 05:15:00
11:35 PM,37.4,33.8,87,30.49,10.0,Calm,Calm,-,N/A,,Clear,0,2012-11-13 05:35:00
11:55 PM,37.4,32.0,81,30.49,10.0,NW,4.6,-,N/A,,Clear,310,2012-11-13 05:55:00